User: anonymous   Login
Location: *
(49.6619°S, 177.4603°W)
Time: 05:14:51
(UTC+00:00)
Language:

Cosmos 468 Rocket - Orbit

View from above orbital plane
View from above orbital plane
View from above satellite
View from above satellite

Ground track
Ground track

The orbit data is extracted from the following two-line orbital elements,

1  5707U 71114B   24109.61009848  .00000699  00000-0  23145-3 0  9997
2  5707  74.0264 156.9586 0025194 332.4559  27.5259 14.39598499742022
Epoch (UTC): 18 April 2024 14:38:32
Eccentricity: 0.0025194
inclination: 74.0264°
perigee height: 742 km
apogee height: 778 km
right ascension of ascending node: 156.9586°
argument of perigee: 332.4559°
revolutions per day: 14.39598499
mean anomaly at epoch: 27.5259°
orbit number at epoch: 74202

The dashed part of the orbit path shows where the satellite is in the earth's shadow,  

DLR